| time (UTC) | temp C | wind direction | speed KPH | gust KPH | rain 1hr cm | rain 24hr cm | rain mn cm | humidity % | barometer mb |
| 20260505035631 | 13 | 104 | 1.6 | 3.2 | 0.00 | 0.00 | 0.00 | 52 | 1006.7 |
| 20260505034624 | 13 | 93 | 1.6 | 6.4 | 0.00 | 0.00 | 0.00 | 48 | 1006.7 |
| 20260505033631 | 13 | 90 | 4.8 | 9.7 | 0.00 | 0.00 | 0.00 | 47 | 1006.6 |
| 20260505032619 | 13 | 72 | 0.0 | 4.8 | 0.00 | 0.00 | 0.00 | 50 | 1006.4 |
| 20260505031630 | 13 | 71 | 3.2 | 8.0 | 0.00 | 0.00 | 0.00 | 52 | 1006.4 |
| 20260505030624 | 15 | 70 | 1.6 | 8.0 | 0.00 | 0.00 | 0.00 | 49 | 1006.2 |
| 20260505025624 | 15 | 61 | 0.0 | 6.4 | 0.00 | 0.00 | 0.00 | 44 | 1006.1 |
| 20260505024615 | 16 | 61 | 0.0 | 4.8 | 0.00 | 0.00 | 0.00 | 43 | 1006.1 |
| 20260505023623 | 16 | 61 | 4.8 | 9.7 | 0.00 | 0.00 | 0.00 | 41 | 1006.0 |
| 20260505022617 | 16 | 343 | 0.0 | 6.4 | 0.00 | 0.00 | 0.00 | 41 | 1005.8 |
| 20260505021627 | 17 | 327 | 3.2 | 8.0 | 0.00 | 0.00 | 0.00 | 40 | 1005.7 |
| 20260505020615 | 17 | 298 | 4.8 | 9.7 | 0.00 | 0.00 | 0.00 | 39 | 1005.5 |
| 20260505015619 | 18 | 321 | 4.8 | 11.3 | 0.00 | 0.00 | 0.00 | 35 | 1005.3 |
| 20260505014628 | 18 | 281 | 3.2 | 9.7 | 0.00 | 0.00 | 0.00 | 36 | 1005.4 |
| 20260505013617 | 19 | 260 | 8.0 | 14.5 | 0.00 | 0.00 | 0.00 | 34 | 1005.5 |
| 20260505012625 | 19 | 234 | 6.4 | 12.9 | 0.00 | 0.00 | 0.00 | 32 | 1005.5 |
| 20260505011620 | 20 | 247 | 6.4 | 12.9 | 0.00 | 0.00 | 0.00 | 30 | 1005.5 |
| 20260505010630 | 20 | 242 | 6.4 | 11.3 | 0.00 | 0.00 | 0.00 | 29 | 1005.5 |
| 20260505005631 | 20 | 29 | 1.6 | 14.5 | 0.00 | 0.00 | 0.00 | 27 | 1005.5 |
| 20260505004620 | 20 | 59 | 4.8 | 17.7 | 0.00 | 0.00 | 0.00 | 27 | 1005.7 |
| 20260505003651 | 20 | 65 | 8.0 | 19.3 | 0.00 | 0.00 | 0.00 | 28 | 1005.7 |
| 20260505002617 | 20 | 70 | 12.9 | 24.1 | 0.00 | 0.00 | 0.00 | 28 | 1005.8 |
| 20260505001627 | 21 | 103 | 1.6 | 16.1 | 0.00 | 0.00 | 0.00 | 29 | 1006.1 |
| 20260505000618 | 21 | 231 | 4.8 | 16.1 | 0.00 | 0.00 | 0.00 | 31 | 1005.9 |
| 20260504235623 | 20 | 238 | 8.0 | 22.5 | 0.00 | 0.00 | 0.00 | 31 | 1005.9 |
| 20260504234632 | 20 | 238 | 11.3 | 22.5 | 0.00 | 0.00 | 0.00 | 31 | 1006.0 |
| 20260504233623 | 20 | 163 | 8.0 | 16.1 | 0.00 | 0.00 | 0.00 | 31 | 1005.9 |
| 20260504232631 | 20 | 215 | 12.9 | 30.6 | 0.00 | 0.00 | 0.00 | 32 | 1006.0 |
| 20260504231627 | 20 | 210 | 17.7 | 29.0 | 0.00 | 0.00 | 0.00 | 32 | 1005.9 |
| 20260504230635 | 20 | 242 | 6.4 | 11.3 | 0.00 | 0.00 | 0.00 | 29 | 1005.7 |
| 20260504225615 | 21 | 253 | 6.4 | 12.9 | 0.00 | 0.00 | 0.00 | 26 | 1005.6 |
| 20260504224625 | 22 | 243 | 6.4 | 12.9 | 0.00 | 0.00 | 0.00 | 23 | 1005.7 |
| 20260504223711 | 22 | 255 | 4.8 | 11.3 | 0.00 | 0.00 | 0.00 | 25 | 1005.7 |